Location: Unspecified
(0.0000°N, 0.0000°E)
Time: 00:17:48
(UTC+00:00)

Hubble Space Telescope - Pass Details

Date: 18 January 2022
Orbit: 534 x 538 km, 28.5° (Epoch: 27 January)

Event Time Altitude Azimuth Distance (km) Brightness Sun altitude
Rises 20:38:12 0° 229° (SW) 2,671 5.3 -34.3°
Reaches altitude 10° 20:40:33 10° 221° (SW) 1,780 4.1 -34.8°
Enters shadow 20:40:58 12° 219° (SW) 1,630 3.8 -34.9°
